Observer details:
104 San Marcello Pistoiese.  Observers P. Bacci, M. Maestripieri, M. D.
    Grazia.  Measurer P. Bacci.  0.60-m f/4 reflector + CCD.
203 GiaGa Observatory.  Observer G. Galli.  0.36-m f/5.76 Schmidt-Cassegrain +
    CCD.
204 Schiaparelli Observatory.  Observer L. Buzzi.  0.84-m f/3.5 reflector +
    CMO.
595 Farra d'Isonzo.  Observer E. Pettarin.  0.61-m f/4.5 reflector + CCD.
695 Kitt Peak.  Observer A. F. Tubbiolo.  2.3-m f/9 reflector + CCD.
958 Observatoire de Dax.  Observer P. Dupouy.  0.50-m f/4.5 Reflector + CMO.
D63 G. Pascoli Observatory, Castelvecchio Pascoli (since June 2023).  Observer
    R. Bacci.  0.41-m f/3.75 Reflector + CCD.
G00 AZM Martinsberg, Oed.  Observers M. Jaeger, E. Prosperi.  Measurer M.
    Jaeger.  0.40-m f/3.2 reflector + CMO.
G02 KYSUCE Observatory, Kysucke Nove Mesto.  Observer M. Urbanik.  0.40-m
    f/6.8 Corrected Dall-Kirkham + CCD.
G15 Magroforte Observatory, Alessandria.  Observer A. De Pieri.  0.23-m f/6.7
    SC + CMO.
G96 Mt. Lemmon Survey.  Observers G. J. Leonard, T. Beuden.  Measurers T.
    Beuden, V. F. Carvajal, D. Fay, J. B. Fazekas, D. C. Fuls, A. R. Gibbs, A.
    D. Grauer, H. Groeller, J. K. Hogan, R. A. Kowalski, S. M. Larson, G. J.
    Leonard, D. Rankin, R. L. Seaman, F. C. Shelly, K. W. Wierzchos.  1.5-m
    reflector + 10K CCD.
H21 Astronomical Research Observatory, Westfield.  Observer R. Holmes.
    Measurers T. Linder, R. Holmes, L. Horn.  0.76-m f/3.0 astrograph + CCD.
H36 Sandlot Observatory, Scranton.  Observer G. Hug.  0.56-m f/4.8 reflector +
    CMO.
I52 Steward Observatory, Mt. Lemmon Station.  Observers V. F. Carvajal, R. A.
    Kowalski.  Measurers T. Beuden, V. F. Carvajal, D. Fay, J. B. Fazekas, D.
    C. Fuls, A. R. Gibbs, A. D. Grauer, H. Groeller, J. K. Hogan, R. A.
    Kowalski, S. M. Larson, G. J. Leonard, D. Rankin, R. L. Seaman, F. C.
    Shelly, K. W. Wierzchos.  1.0-m prime focus + CCD.
I93 St Pardon de Conques.  Observer F. Losse.  0.40-m f/3.7 reflector + CMO.
J95 Great Shefford.  Observer P. Birtwhistle.  0.41-m f/6.3 Schmidt-Cassegrain
    + CCD.
K78 iota Scorpii Observatory, La Spezia.  Observers G. Scarfi, P. Boongerd.
    0.40-m f/6.1 reflector + CMO.
K83 Beppe Forti Astronomical Observatory, Montelupo.  Observers M. Tombelli,
    G. Interrante, T. Bitossi, A. Mazzanti, M. Calamandrei, G. Tozzi, A.
    Pucci, L. Lombardo, L. Moroni, M. Liserani, M. Lombardo, M. Iozzi.
    Measurers M. Tombelli, F. Bernardi, A. Squilloni, F. Cheli.  0.40-m f/8
    Ritchey-Chretien + CCD.
L34 Galhassin Robotic Telescope, Isnello.  Observer A. Nastasi.  0.40-m f/3.8
    400mm Reflector + CMO.
L47 Osservatorio Astronomico, Piobbico.  Observers A. Teseo, A. Annamelia.
    Measurer A. Teseo.  0.28-m f/6.3 Schmidt-Cassegrain + CMO.
M45 Starhopper Observatory, Sfantu Gheorghe.  Observer F. Ursache.  0.41-m
    f/7.5 reflector + CMO.
O46 Daocheng Glacier Observatory.  Observer Z. Wang.  0.25-m f/8 reflector +
    CMO.
Q06 Tarui Observatory, Tarui.  Observer H. Watanabe.  0.35-m f/1.9 Schmidt-
    Cassegrain + CMO.
Z84 Calar Alto-Schmidt.  Observers F. Ocana, R. Kresken, M. Micheli, L.
    Conversi.  Measurers F. Ocana, M. Micheli.  0.8-m f/3 Schmidt + CCD.

Orbital elements:
2024 KW                                                  Earth MOID = 0.3226 AU
Epoch 2024 Mar. 31.0 TT = JDT 2460400.5                 Veres                   
M 358.83186              (2000.0)            P               Q                  
n   0.27493360     Peri.    7.82863     -0.35366623     -0.82613231             
a   2.3423448      Node   103.75921     +0.83185919     -0.49223521             
e   0.8979803      Incl.   26.84788     +0.42770374     +0.27424425             
P   3.58           H   19.73          G   0.15           U   9                  
Residuals in seconds of arc
240522 G96  0.6-  0.2+    240524 K83  0.8+  0.7-    240526 G15  0.1+  0.2-
240522 G96  0.3+  0.2+    240524 K83  0.3+  0.6+    240527 H36  0.5-  1.1+
240522 G96  0.2+  0.4+    240524 J95  0.0   0.2-    240527 H36  0.5+  0.3+
240522 I52  0.3-  0.1+    240524 595  0.4-  0.1-    240527 G02  0.3-  0.7+
240522 I52  1.3+  0.6+    240524 J95  0.0   0.1-    240527 G00  0.2+  0.3+
240522 I52  0.5+  0.7+    240524 595  0.1-  0.3-    240527 G02  0.2+  0.1+
240522 I52  0.3+  0.6+    240524 J95  0.0   0.2+    240527 G00  0.0   0.0
240522 G96  0.1+  0.0     240525 Q06  0.4+  0.0     240527 G02  0.2+  0.5+
240522 G96  0.1-  0.2+    240525 Q06  1.0+  0.2-    240528 I52  0.2-  0.1-
240522 G96  0.1-  0.1+    240525 Q06  0.1+  0.4-    240528 I52  0.1-  0.1+
240522 G96  0.0   0.1-    240525 M45  0.5+  0.5+    240528 I52  0.2+  0.4+
240523 Z84  0.3+  0.2+    240525 104  0.3+  0.4-    240528 I52  0.0   0.0
240523 Z84  0.5-  0.7+    240525 104  0.1+  0.2+    240528 695  0.1-  0.0
240523 O46  0.1+  0.3+    240525 M45  0.4+  0.2+    240528 695  0.1-  0.1+
240523 O46  0.2-  0.2-    240525 104  0.3-  0.6-    240528 695  0.0   0.1+
240523 O46  0.3-  0.0     240525 K78  0.1+  0.0     240528 D63  0.3-  0.2+
240523 958  0.5+  0.2+    240525 K78  0.1+  0.0     240528 D63  0.5+  0.3-
240523 958  0.8+  0.5+    240525 K78  0.2+  0.0     240528 D63  0.4-  0.2-
240523 958  0.4+  0.9-    240525 203  0.1-  0.2-    240529 H21  0.0   0.1+
240523 L34  0.3+  0.0     240525 204  0.1+  0.4+    240529 H21  0.0   0.1+
240523 L34  0.0   0.0     240525 203  0.7+  0.0     240529 H21  0.0   0.0
240523 I93  0.2+  0.2-    240525 204  0.2+  0.2+    240529 G96  0.3-  0.1-
240523 I93  0.1+  0.2-    240525 203  0.2+  0.1-    240529 G96  0.1-  0.1-
240523 I93  0.1-  0.0     240525 204  0.0   0.3+    240529 G96  0.2-  0.4-
240524 H21  0.3+  0.2-    240526 L47  0.6-  0.2+    240529 G96  0.4-  0.1-
240524 H21  0.0   0.0     240526 L47  0.2-  0.3+
240524 H21  0.2-  0.4-    240526 G15  0.3-  0.6-

Ephemeris:
2024 KW                  a,e,i = 2.34, 0.90, 27                  q = 0.2390
Date    TT    R. A. (2000) Decl.     Delta      r    Elong.  Phase     V
2024 04 29    00 05 03.1 +41 09 46   0.4613  0.7217    40.5   114.9    21.8
...
2024 05 14    20 57 24.3 +49 37 53   0.3612  1.0129    80.1    79.4    20.3
...
2024 05 22    18 55 42.8 +44 02 26   0.3631  1.1528   103.6    58.6    19.9
...
2024 05 28    17 49 12.9 +36 01 15   0.3945  1.2519   118.8    45.2    19.9
2024 05 29    17 40 28.2 +34 35 42   0.4021  1.2680   120.9    43.3    19.9
2024 05 30    17 32 19.1 +33 10 22   0.4103  1.2840   123.0    41.5    20.0
...
2024 06 05    16 53 52.1 +25 04 53   0.4718  1.3774   132.4    33.0    20.2
...
2024 06 13    16 22 21.4 +16 14 26   0.5803  1.4962   137.6    27.2    20.6
...
2024 06 28    15 55 02.3 +05 10 28   0.8392  1.7036   133.0    25.9    21.7

M. P. C. Staff               (C) Copyright 2024 MPC           M.P.E.C. 2024-K121





More information about the Iaude mailing list